User: anonymous   Login
Location: Mat�lon
(46.2791°N, 7.1028°E)
Time: 04:25:11
(UTC+00:00)
Language:

Okean 1 Rocket - Orbit

View from above orbital plane
View from above orbital plane
View from above satellite
View from above satellite

Ground track
Ground track

The orbit data is extracted from the following two-line orbital elements,

1 19275U 88056B   21215.40372054  .00000088  00000-0  80202-5 0  9990
2 19275  82.5171 359.3274 0018515 279.5751  80.3371 14.82799957765662
Epoch (UTC): 03 August 2021 09:41:21
Eccentricity: 0.0018515
inclination: 82.5171°
perigee height: 607 km
apogee height: 633 km
right ascension of ascending node: 359.3274°
argument of perigee: 279.5751°
revolutions per day: 14.82799957
mean anomaly at epoch: 80.3371°
orbit number at epoch: 76566

The dashed part of the orbit path shows where the satellite is in the earth's shadow,  

DLR